Погода в Белом Яре

Россия / Омская область     57°35′18″N   72°23′04″E
темп.,
°C
ветер,
м/с
пор.,
м/с
влажн.,
%
обл.,
%
осадки,
мм/ч
давл.,
гПа
погр.,
м
15 июня, вт
вт1500:00+18зюз277259 0.0 1018132
03:00+15зюз25805 0.0 101776
06:00+16юз267442 0.0 1017145
09:00+24зюз47415 0.0 1016495
12:00+29зюз4727100 0.0 10151705
15:00+29зюз5729100 0.0 10131667
18:00+29зюз583787 0.0 10111803
21:00+17ююв1193100 1.7 101114
16 июня, ср
ср1600:00+16зюз1197100 3.3 101116
03:00+16ююв2595100 1.6 1010129
06:00+15з26975 1.6 1010173
09:00+21з36715 0.1 1010514
12:00+25зсз574736 0.9 10102001
15:00+24ссз484812 0.0 1009844
18:00+27ссз473395 0.0 10082763
21:00+20с226135 0.0 100932
17 июня, чт
чт1700:00+15ссв11767 0.0 101011
03:00+13в11945 0.0 101011
06:00+15зюз12845 0.0 101051
09:00+21зюз2351100 0.0 1009410
12:00+23ююз344831 0.1 1008591
15:00+30юз353597 0.1 10052985
18:00+30юз463770 0.1 10032944
21:00+18юв13969 3.9 1002123
18 июня, пт
пт1800:00+16ю2297100 8.4 100225
03:00+15з229899 1.1 100145
06:00+15с3899100 1.4 1001413
09:00+10с51197100 1.4 1001615
12:00+7с61498100 10.7 1005704
15:00+8с51095100 0.4 1007946
18:00+10ссв41178100 0.4 10081132
21:00+12с5125395 0.0 10081708
19 июня, сб
сб1900:00+10с5125594 0.0 10091086
03:00+9ссз51257100 0.0 1010797
06:00+8ссз5126491 0.0 1011783
09:00+12с6114578 0.0 10111714
12:00+15ссз693641 0.0 10112283
15:00+17ссз683178 0.0 10102657
18:00+17с583158 0.0 10092613
21:00+13сз245850 0.0 100965